GFSFLT2_sfc_thetae_000.txt.gz
Theta_e
313 313 314 314 314 312 311 310 310 309 310 310 310 313 314 314 315 315 316 316 316 315 315 314 314 316 312
304 310 311 311 310 308 307 305 304 308 307 307 306 309 310 311 312 312 313 313 313 314 314 318 316 316 308
302 305 307 307 306 306 305 304 307 301 300 302 305 306 308 308 309 310 311 311 310 310 313 315 315 304 303
300 299 300 301 300 300 301 300 300 300 299 302 305 308 306 306 307 307 308 307 306 301 301 307 302 303 302
296 299 298 299 298 298 298 298 299 299 298 297 297 297 298 302 298 299 299 299 299 299 300 300 301 301 301
298 298 298 297 297 297 296 296 296 296 295 294 295 295 295 295 294 294 295 296 296 298 298 299 299 300 300
296 296 297 295 296 296 296 294 294 294 292 293 293 293 293 293 292 292 293 293 294 296 297 297 296 297 297
296 295 295 295 295 295 294 292 293 292 290 291 291 291 291 291 291 291 291 291 292 294 295 295 295 295 296
295 295 295 294 294 293 293 292 291 291 290 289 290 289 290 290 290 290 290 291 291 292 292 293 294 295 295
293 294 294 292 292 291 292 291 291 290 289 288 288 288 289 289 288 288 288 288 289 289 289 290 292 293 294
293 293 292 291 290 290 289 289 289 290 290 288 288 287 288 288 287 288 287 287 287 287 289 290 289 290 291
292 291 290 290 289 288 288 288 289 289 289 287 287 287 287 286 286 287 286 287 287 287 290 289 289 290 291
290 288 287 288 287 287 288 288 288 288 288 286 286 286 286 285 285 286 286 286 285 287 286 286 287 288 289
291 289 288 288 287 287 288 288 288 287 287 286 285 284 284 284 284 285 285 284 285 286 283 283 281 284 288
290 289 287 286 286 285 285 285 287 287 286 286 285 284 284 284 283 284 284 283 282 283 284 283 280 279 283
290 288 286 284 282 284 285 286 286 286 285 285 285 284 283 283 283 283 285 283 282 281 283 286 284 283 280

GFSFLT2_sfc_thetae_003.txt.gz
Theta_e
322 322 321 320 318 317 316 314 313 312 312 311 312 314 315 316 316 316 316 316 316 316 316 316 319 320 310
308 318 318 316 314 312 311 310 311 310 309 308 308 311 312 314 314 314 314 314 311 312 313 313 315 310 302
303 309 313 313 310 309 308 308 307 299 300 302 307 308 309 310 310 310 310 309 308 308 309 310 309 302 302
303 302 300 302 300 300 300 298 299 297 299 302 306 307 306 305 306 306 306 305 302 299 299 303 300 300 301
297 298 297 297 296 297 296 297 297 297 296 296 295 295 295 299 294 296 296 296 295 296 297 297 298 298 298
296 297 296 296 295 295 295 296 295 294 293 293 293 293 292 292 291 291 292 293 293 295 296 296 296 295 296
296 296 295 295 295 295 293 294 294 292 291 292 291 291 290 290 290 290 290 291 292 293 294 294 294 294 294
294 294 294 294 294 294 291 291 292 291 290 290 290 290 289 289 289 289 289 289 290 291 292 293 292 293 294
294 294 294 293 294 292 291 290 290 290 289 289 288 288 288 288 288 288 288 289 288 290 289 291 291 292 293
294 293 294 292 291 291 290 289 289 289 289 287 287 287 287 287 287 287 287 287 286 287 287 288 289 290 290
291 292 291 290 290 289 289 288 288 289 288 287 287 286 287 286 286 286 286 285 285 286 287 288 289 288 289
292 290 289 288 287 287 287 287 287 287 288 286 286 286 286 286 285 285 284 285 285 285 287 288 287 288 288
291 289 288 287 285 285 286 287 286 286 287 286 285 285 285 285 285 285 285 285 284 285 284 284 285 287 287
292 291 287 287 285 285 286 286 286 286 286 286 285 284 284 284 284 284 284 283 284 284 282 281 280 284 286
291 289 286 286 284 284 284 284 285 286 286 285 284 284 283 283 283 283 283 283 281 282 283 282 279 278 283
289 289 286 287 285 286 286 285 285 285 285 285 284 284 283 283 282 282 284 282 282 280 282 285 283 282 279

GFSFLT2_sfc_thetae_006.txt.gz
Theta_e
328 327 326 326 324 322 320 319 317 316 314 315 315 315 317 317 317 317 316 313 313 314 313 313 312 312 299
316 323 323 323 321 319 317 316 315 312 310 311 311 313 315 315 314 313 312 310 310 310 311 310 309 307 300
307 313 319 319 318 316 314 313 308 299 301 303 310 310 311 311 310 310 308 306 305 306 307 306 304 299 299
306 306 305 306 303 301 300 301 298 296 298 302 306 307 306 305 306 306 304 303 299 295 296 300 296 296 297
301 300 298 298 297 298 296 297 296 297 297 295 294 294 293 296 292 294 293 293 293 293 294 294 294 294 293
296 298 296 296 295 295 295 296 294 293 292 292 292 291 290 290 289 289 290 291 291 292 293 292 292 292 292
295 295 294 294 295 294 294 295 294 292 291 291 290 290 288 289 288 288 289 289 290 291 291 291 291 291 291
294 295 295 294 294 293 291 292 293 291 290 290 289 289 288 288 287 288 288 288 288 289 289 290 290 290 291
295 295 294 294 294 292 290 291 291 290 289 288 288 287 287 287 287 287 287 287 287 288 287 289 289 290 290
295 294 294 293 293 292 289 289 290 289 289 287 287 286 287 286 286 286 286 285 285 286 285 286 287 289 289
293 293 292 291 291 291 289 287 288 288 288 287 286 286 286 286 285 286 285 284 284 285 286 286 287 287 287
293 290 289 289 289 289 288 287 287 287 287 286 285 286 286 285 285 284 284 284 284 284 286 286 285 286 286
291 290 289 289 288 286 286 287 286 286 286 285 285 285 285 284 284 284 284 283 283 283 283 283 284 285 285
293 293 290 289 285 287 287 287 287 286 285 285 284 284 284 283 283 283 283 282 283 283 281 281 279 282 285
292 290 285 285 283 283 284 284 285 285 285 285 284 283 283 283 282 282 282 282 281 281 282 281 278 277 280
291 289 287 289 286 286 286 284 283 285 284 284 284 283 282 282 282 282 283 282 281 280 281 284 282 281 278

GFSFLT2_sfc_thetae_009.txt.gz
Theta_e
334 334 335 334 330 327 325 323 321 320 319 318 317 318 319 319 318 318 315 315 314 314 313 312 310 309 297
320 327 328 330 327 325 322 321 320 316 315 316 316 318 317 317 316 314 312 311 311 311 309 308 306 304 296
312 316 322 324 323 322 319 318 313 302 303 305 312 316 314 313 313 311 308 306 305 305 306 305 302 295 295
309 310 310 311 309 307 305 304 298 297 298 302 308 311 309 309 309 307 305 302 297 293 294 298 293 293 293
304 304 303 302 300 299 298 298 295 296 298 296 295 293 292 296 291 293 292 291 291 291 292 291 291 291 290
299 302 300 299 296 296 295 296 294 294 292 292 291 290 289 289 288 289 289 290 290 291 290 290 289 289 289
297 299 297 296 297 295 294 295 294 292 291 291 290 289 288 288 288 287 288 288 288 289 289 289 288 289 289
297 297 298 296 295 294 292 293 293 292 290 290 289 288 287 287 287 287 287 287 287 288 288 288 288 288 289
296 296 295 295 295 294 292 292 292 291 289 288 288 287 286 286 287 286 286 286 285 287 286 287 288 288 288
296 295 295 294 294 293 291 290 291 290 289 288 287 286 286 286 285 285 285 284 284 284 284 285 286 287 288
296 295 294 293 293 293 289 289 289 289 288 288 286 286 286 285 285 285 284 283 283 284 285 285 285 285 286
294 292 291 291 290 290 290 288 288 288 288 286 285 285 285 284 284 284 283 284 283 283 285 284 284 285 285
292 290 291 291 290 289 288 288 288 287 287 285 285 284 284 284 283 283 283 282 283 282 281 282 283 285 284
294 294 291 292 287 289 288 287 287 286 286 285 284 284 283 283 283 283 283 282 282 282 280 280 279 281 284
293 290 285 284 283 283 284 286 286 286 285 285 284 284 283 283 282 282 282 282 281 281 281 280 277 277 279
292 290 288 289 288 288 289 287 285 285 284 284 284 283 283 282 281 281 282 281 281 280 281 283 281 280 278

GFSFLT2_sfc_thetae_012.txt.gz
Theta_e
336 337 337 338 336 335 333 330 326 324 323 321 320 321 321 321 320 317 317 316 316 314 313 311 309 306 294
324 331 332 334 334 332 329 326 324 322 322 320 321 321 320 320 317 315 313 313 312 311 309 307 304 302 294
317 320 326 328 328 326 323 320 313 304 306 307 312 320 318 317 314 312 310 308 307 307 306 304 300 292 292
314 313 314 316 314 311 309 306 301 299 300 304 310 316 315 314 311 310 307 304 297 292 292 296 290 291 291
308 308 307 307 305 304 303 299 297 296 299 299 298 296 295 299 293 294 291 290 290 290 290 289 289 289 289
305 306 305 304 301 300 298 296 293 293 294 294 291 290 289 289 288 288 289 289 289 289 289 288 288 288 288
302 303 302 302 301 298 296 295 293 293 291 291 289 288 287 287 287 287 287 287 287 288 288 287 287 288 288
303 302 303 302 298 296 294 295 292 293 291 290 289 287 286 287 286 286 286 286 286 287 287 287 287 287 287
303 301 302 300 297 295 294 292 292 292 290 289 288 286 286 286 286 286 285 285 285 286 285 286 287 287 287
302 300 299 297 297 296 293 293 292 291 290 288 287 286 286 285 285 284 284 283 284 284 284 284 285 286 287
301 298 297 295 295 295 292 292 291 291 289 289 287 286 285 284 284 284 283 283 282 283 284 284 284 285 286
299 295 292 291 293 291 291 291 290 291 289 287 286 285 285 284 283 283 283 283 283 282 284 283 283 284 284
295 292 291 292 291 290 291 290 290 289 288 287 286 285 284 284 283 282 282 282 282 282 281 282 282 284 283
295 295 292 294 290 292 290 288 289 288 287 287 286 285 284 283 282 282 283 281 281 281 280 280 279 280 283
294 292 285 285 284 284 285 286 286 287 287 287 285 285 284 283 283 282 282 282 281 280 280 281 278 278 279
293 291 290 290 289 290 291 290 288 287 286 285 285 285 284 283 282 282 282 281 281 280 281 282 280 280 277

GFSFLT2_sfc_thetae_015.txt.gz
Theta_e
338 339 341 341 341 340 338 337 334 330 327 325 324 324 323 323 322 320 319 318 317 315 313 310 308 305 302
335 332 334 336 337 336 336 332 328 327 326 324 324 324 323 322 319 318 317 316 314 312 309 306 304 302 300
329 329 329 331 332 331 329 325 321 319 319 318 317 323 322 319 317 315 314 312 310 308 306 303 299 298 298
322 326 329 328 328 325 321 318 313 312 312 311 314 320 321 318 314 312 309 305 299 298 298 297 297 296 297
319 320 321 321 320 318 315 310 308 307 309 310 310 308 308 306 305 304 299 297 297 297 296 295 295 296 296
316 317 317 317 315 313 311 307 304 303 305 305 304 303 302 300 298 296 296 296 295 295 295 294 295 295 295
312 314 314 314 312 311 307 304 303 301 303 302 300 297 296 295 295 295 295 294 294 294 293 293 294 294 294
313 312 313 312 311 307 306 304 300 300 301 300 296 294 294 294 294 294 293 293 293 293 292 292 293 293 294
312 311 312 310 306 306 305 302 299 298 298 297 295 293 293 293 293 292 291 292 292 291 292 292 292 293 294
311 310 310 309 306 306 303 301 299 298 297 295 295 293 292 292 292 292 291 290 291 291 291 291 291 293 293
309 310 308 306 306 305 301 300 298 297 296 295 294 293 291 291 291 290 289 290 290 290 289 290 291 292 292
307 307 304 301 304 302 300 298 297 297 295 294 293 292 290 290 289 289 289 289 290 289 287 289 290 290 290
303 301 298 298 299 297 299 298 296 296 295 294 293 291 290 290 289 289 289 289 288 288 288 288 289 289 289
301 301 301 301 299 298 297 296 296 295 294 293 292 291 289 289 288 288 289 287 287 287 289 288 286 288 289
299 299 290 292 290 292 292 292 293 294 293 293 292 291 289 289 288 288 289 289 287 286 286 290 284 287 286
297 296 295 295 293 293 295 294 293 292 292 292 291 290 289 289 288 288 288 288 288 286 286 286 286 287 286

GFSFLT2_sfc_thetae_021.txt.gz
Theta_e
343 344 346 348 348 347 342 340 340 338 335 333 330 329 327 325 325 324 321 320 318 315 312 310 308 312 311
344 336 339 342 342 341 338 335 334 333 333 331 328 328 325 324 323 322 320 318 315 312 309 306 304 309 308
340 339 333 334 335 335 333 330 327 332 331 327 324 327 326 325 322 320 319 316 312 308 305 302 305 305 305
336 338 341 340 340 339 337 335 334 332 330 324 321 323 326 323 321 319 316 312 308 306 303 303 304 304 304
337 337 337 337 337 340 339 337 334 331 328 323 322 321 323 317 316 315 310 305 306 306 304 304 303 304 303
336 335 336 336 336 337 337 336 333 330 325 322 320 321 323 318 316 314 308 308 305 303 303 303 303 303 303
333 334 333 334 335 336 335 334 331 327 323 320 318 320 320 317 314 310 307 305 304 302 302 301 301 302 302
330 332 332 333 333 333 333 331 330 326 322 318 317 318 317 315 311 307 305 304 304 303 301 300 300 301 301
328 330 331 331 330 331 331 330 327 325 320 316 315 315 314 312 308 305 304 304 302 301 300 299 300 300 301
325 327 328 329 329 329 330 328 325 323 318 315 312 312 312 307 304 303 302 301 301 300 299 299 299 300 300
323 325 326 327 327 327 327 326 324 320 317 312 310 310 309 304 302 301 300 300 299 299 299 299 299 299 299
318 321 323 324 325 325 324 323 322 319 315 311 309 308 305 302 301 301 300 300 300 299 294 296 298 299 299
313 315 317 318 320 321 322 321 320 317 314 311 307 306 303 301 300 300 300 299 299 298 296 295 295 296 296
309 313 314 315 317 318 319 319 318 316 313 309 307 304 302 300 300 300 299 297 298 297 296 296 291 291 294
306 309 310 311 309 310 312 314 314 314 312 309 306 304 302 300 299 299 299 297 295 296 299 299 295 294 291
304 305 305 305 303 306 306 309 310 311 310 309 306 305 302 300 299 299 298 298 297 293 295 296 298 298 293

GFSFLT2_sfc_thetae_024.txt.gz
Theta_e
343 345 346 347 347 349 347 344 342 341 339 336 333 332 331 327 326 325 322 320 318 316 312 309 310 315 305
340 337 339 342 343 344 341 337 335 334 333 332 329 331 329 326 326 324 322 319 316 312 309 305 307 311 301
338 338 334 337 338 336 333 330 327 328 327 325 324 328 328 327 324 322 320 318 314 309 305 303 307 298 299
337 336 337 337 336 334 331 327 328 326 325 325 320 324 327 326 325 322 319 315 310 300 298 304 298 297 297
332 331 337 337 337 334 333 331 329 326 322 318 314 316 316 317 313 313 310 304 301 298 297 297 297 296 295
330 329 329 331 331 334 334 330 330 327 319 315 313 313 313 310 309 307 303 300 299 298 298 297 296 295 295
328 328 327 328 330 330 332 330 327 324 317 314 312 312 313 310 308 304 299 299 297 297 297 296 296 296 296
326 326 326 326 326 330 331 327 325 323 316 312 310 311 312 308 306 301 298 297 296 296 295 296 295 295 296
322 324 325 325 325 325 325 325 324 321 316 311 308 309 309 307 303 298 297 297 295 296 294 295 295 295 295
319 321 323 323 323 322 324 322 322 320 316 310 307 307 307 303 299 296 295 294 293 293 292 292 293 294 294
317 318 320 321 320 320 321 321 319 318 315 309 306 306 304 300 296 296 294 293 292 292 292 291 292 292 293
311 313 314 316 318 318 318 318 319 316 314 307 304 304 301 297 295 294 293 293 292 292 292 292 291 292 292
305 307 308 310 313 314 315 316 317 315 312 306 302 301 298 296 295 294 293 292 292 291 290 289 289 290 290
302 305 306 307 307 311 313 313 315 314 311 306 302 299 297 294 294 294 292 291 291 291 289 287 284 286 288
300 302 303 304 301 301 304 306 309 311 310 308 303 299 297 295 294 293 293 292 289 290 292 290 285 284 285
298 299 298 298 297 298 300 302 304 306 306 306 304 300 297 295 293 293 294 293 290 290 288 292 289 289 285

GFSFLT2_sfc_thetae_027.txt.gz
Theta_e
343 344 346 347 347 348 348 348 344 342 340 336 335 334 334 331 329 326 323 321 318 315 312 312 315 317 304
341 337 340 342 343 344 343 340 336 336 335 334 331 334 332 329 328 325 322 320 317 313 309 307 311 311 300
336 336 333 336 338 338 336 332 330 328 328 326 325 330 330 328 327 324 321 319 314 309 305 306 307 296 298
340 337 335 336 337 337 334 332 330 325 324 324 321 325 328 327 326 323 321 317 308 298 296 303 296 295 295
333 332 335 338 335 332 332 329 327 324 322 319 316 318 317 318 315 316 312 305 302 299 295 295 295 294 294
331 329 334 335 334 333 332 329 328 326 322 314 313 312 312 310 308 306 304 301 298 296 296 295 294 294 294
326 326 330 332 332 330 332 331 330 326 322 315 311 311 310 308 306 304 301 297 296 295 295 295 294 294 294
327 325 324 325 327 326 325 328 330 326 321 315 310 311 310 308 305 302 298 296 295 294 294 294 293 293 294
323 324 323 323 324 324 326 324 324 324 319 313 310 309 310 307 304 299 296 295 294 294 293 293 293 293 294
320 320 323 322 321 321 322 322 321 322 318 311 308 307 307 305 301 296 295 293 292 292 290 291 292 293 293
316 317 319 320 319 319 320 321 322 320 316 312 307 306 305 301 297 296 292 292 290 290 290 290 290 291 292
309 311 313 314 315 316 317 321 321 320 315 310 307 305 303 299 295 293 292 291 290 290 292 290 289 290 290
301 305 306 308 311 312 316 319 319 318 315 309 306 305 300 298 296 293 291 291 290 289 288 287 288 289 289
300 300 303 302 302 306 310 311 315 315 314 309 304 302 298 295 293 292 291 289 290 289 287 285 283 285 287
297 299 299 300 299 298 301 304 308 311 310 309 305 302 299 298 295 293 291 291 289 289 288 288 283 283 283
294 294 293 293 293 294 295 296 299 303 304 307 305 303 299 297 295 292 292 291 289 287 287 290 288 287 283

GFSFLT2_sfc_thetae_030.txt.gz
Theta_e
343 344 345 347 348 348 349 348 346 343 340 337 337 336 334 333 330 327 323 320 317 314 313 314 319 315 309
343 337 339 341 342 343 343 341 337 336 336 334 332 335 334 332 329 326 322 320 317 312 309 311 313 310 305
338 338 335 337 337 337 337 333 331 332 330 328 327 332 333 330 329 325 322 320 315 308 307 309 304 296 302
340 336 338 339 340 339 336 333 334 329 325 325 322 327 330 328 329 325 322 318 307 295 295 302 294 294 298
336 336 335 338 337 334 331 330 330 327 324 320 318 319 318 319 317 319 315 306 299 296 294 294 293 293 296
332 332 335 337 336 335 329 326 328 326 323 320 316 314 313 312 310 308 305 302 298 296 295 294 293 293 295
327 328 331 334 333 333 331 326 328 326 324 320 317 314 311 308 307 304 303 299 295 294 294 294 293 292 293
327 324 329 332 333 330 329 327 327 327 324 319 315 311 309 308 305 304 302 296 294 293 293 293 293 292 293
324 323 323 326 325 326 324 324 324 325 325 318 314 312 311 307 305 302 298 294 293 292 292 292 292 292 293
318 320 321 321 321 322 322 322 322 322 323 317 314 313 312 309 304 300 296 293 292 291 289 290 290 291 292
315 317 318 318 318 318 319 324 323 323 320 317 314 313 310 309 301 299 293 293 291 290 290 289 289 290 291
307 310 311 313 314 314 317 321 322 320 316 314 312 310 308 305 298 295 293 291 291 290 291 289 288 289 289
298 301 304 305 306 311 314 317 319 319 315 313 311 309 305 304 302 297 292 291 289 288 287 287 287 288 288
296 297 299 299 298 300 304 307 309 314 315 311 309 307 305 300 298 295 294 289 289 288 287 284 283 286 287
293 295 295 296 295 295 296 297 301 304 307 308 307 304 302 300 298 296 294 293 291 288 287 287 281 282 283
291 291 290 290 289 290 291 292 294 296 296 299 302 303 301 299 297 296 295 293 292 290 287 289 287 285 283

GFSFLT2_sfc_thetae_033.txt.gz
Theta_e
342 342 346 347 348 349 349 348 346 344 342 340 339 339 335 333 332 329 323 320 316 313 314 318 318 318 310
340 336 338 341 343 344 343 340 338 337 337 335 333 335 335 333 331 328 323 319 316 312 310 313 314 314 305
343 338 334 336 337 337 336 333 330 332 330 329 328 332 335 334 330 328 323 320 315 309 308 310 304 300 301
340 340 339 340 340 339 338 334 332 332 329 326 323 328 331 329 330 327 323 320 306 294 294 300 293 295 298
338 338 337 333 335 337 336 334 331 329 326 324 322 321 320 320 318 320 315 306 296 292 293 293 292 292 296
332 336 336 336 332 333 331 330 329 326 324 322 320 319 317 313 312 310 307 304 299 296 295 293 292 292 294
325 326 332 334 335 334 332 329 324 325 324 321 319 318 316 313 309 306 304 302 297 294 293 292 292 292 292
324 323 328 332 332 331 330 330 324 322 321 321 318 316 315 312 308 306 303 301 295 293 293 292 292 291 291
320 320 322 330 329 329 329 327 323 323 323 322 318 315 314 311 307 304 301 297 294 292 291 291 291 291 291
317 318 320 320 321 322 323 325 325 324 323 319 316 314 314 311 309 306 302 296 293 291 289 289 289 290 291
312 315 316 316 318 320 322 323 324 324 323 320 317 314 312 311 308 305 299 298 293 291 290 289 288 288 290
303 308 307 306 308 312 311 314 320 321 319 317 315 313 311 309 305 301 299 294 292 291 291 289 287 288 288
296 298 300 297 298 299 302 304 308 311 314 314 313 312 309 308 306 302 296 295 293 291 288 287 287 287 287
293 294 296 295 295 295 297 298 299 301 303 307 306 305 305 303 301 298 296 294 293 292 290 287 285 286 286
292 293 293 293 291 291 291 292 293 294 294 296 300 302 301 301 300 298 296 295 294 292 290 291 286 282 282
290 290 289 287 286 287 288 289 290 290 290 290 291 293 297 299 298 297 296 294 293 292 290 290 288 288 285

GFSFLT2_sfc_thetae_036.txt.gz
Theta_e
343 344 346 347 347 347 348 347 346 345 344 342 340 339 335 332 331 330 324 321 317 315 316 319 319 319 310
339 336 337 341 343 344 342 340 337 338 338 337 333 336 336 333 330 329 323 320 317 313 313 315 316 314 306
342 335 332 335 337 337 337 334 329 333 332 328 328 332 336 334 331 329 323 320 316 310 311 309 305 300 300
339 340 339 336 339 339 338 336 333 331 330 328 324 327 331 330 331 328 323 318 305 293 292 299 293 295 297
336 337 337 339 335 337 337 335 333 330 327 326 325 325 325 321 318 319 312 306 298 292 292 292 291 291 294
335 336 336 336 333 329 332 333 331 328 326 324 322 322 321 318 316 312 308 304 300 296 294 292 291 291 292
329 333 333 333 334 333 331 330 329 327 325 323 322 320 319 316 315 312 308 304 300 295 293 292 291 291 291
321 326 330 331 331 332 331 329 326 326 324 322 321 317 317 316 314 309 306 303 300 294 293 292 291 291 290
317 320 326 329 328 328 328 328 327 326 324 322 319 317 317 315 312 308 306 303 299 294 292 291 291 291 290
316 317 320 320 320 321 323 325 325 325 325 322 320 317 317 314 311 308 306 303 300 297 292 290 289 289 290
309 310 309 308 309 308 309 312 316 318 320 321 319 318 316 313 309 308 304 302 300 297 295 291 289 288 289
302 302 301 300 300 301 299 301 303 306 311 313 313 311 312 310 307 305 303 298 296 295 294 292 289 288 288
294 296 296 293 294 295 295 296 296 297 301 304 305 305 307 305 303 301 299 298 297 293 293 293 291 291 288
292 292 292 292 291 291 293 293 293 293 294 296 299 300 301 301 301 300 298 296 295 293 292 289 289 289 287
291 291 291 290 289 288 288 288 288 288 289 290 291 293 295 297 297 297 297 296 294 294 291 292 289 286 285
288 287 286 285 283 284 285 285 285 285 285 286 287 288 289 290 289 292 295 294 293 292 292 291 289 288 287

GFSFLT2_sfc_thetae_042.txt.gz
Theta_e
343 344 346 347 346 347 347 346 345 344 344 343 342 339 336 334 334 330 327 323 319 318 320 321 319 318 321
350 337 339 341 343 344 342 340 338 338 339 337 334 337 336 334 333 329 326 323 318 316 315 312 311 316 316
344 343 335 334 336 337 338 335 334 345 343 339 331 334 335 334 332 328 325 320 313 306 308 307 309 310 311
339 342 343 342 344 345 346 345 343 342 341 339 328 329 331 330 332 328 324 317 316 310 306 309 307 307 308
335 341 344 344 343 346 343 342 341 340 338 335 333 332 332 324 328 326 324 327 320 315 309 307 306 306 307
329 339 340 341 342 344 343 342 341 339 336 334 331 332 329 328 325 323 322 325 322 315 311 309 307 307 306
319 338 339 338 339 339 338 335 334 336 338 337 332 331 329 327 325 329 323 320 323 319 314 310 307 306 306
325 335 335 332 329 327 326 328 329 330 329 329 329 328 325 324 324 322 320 316 315 312 314 311 309 308 306
321 318 318 318 318 317 317 318 321 325 325 324 323 321 321 320 320 316 313 313 313 311 310 306 306 309 308
310 310 308 309 309 309 310 313 315 317 318 319 316 316 316 314 313 312 310 310 309 307 305 305 305 309 308
305 304 303 304 305 307 308 307 309 312 312 313 312 311 311 311 310 310 307 309 308 308 304 305 306 303 304
303 303 304 303 303 302 302 303 305 306 311 312 310 308 310 310 309 310 308 305 304 302 301 302 305 303 302
308 306 303 300 298 297 297 298 300 301 302 304 305 306 307 306 306 306 308 307 306 304 306 309 309 306 304
303 302 300 296 294 294 294 293 294 295 296 297 299 299 300 301 300 301 303 305 305 304 301 304 304 306 303
299 297 296 295 294 292 291 291 291 292 292 292 292 293 293 295 294 296 298 299 299 301 301 299 298 298 298
296 296 296 293 289 289 289 290 290 291 290 291 291 291 291 291 291 291 291 293 294 293 299 298 300 297 294

GFSFLT2_sfc_thetae_045.txt.gz
Theta_e
341 344 345 347 346 346 346 345 344 344 344 343 342 338 336 335 332 329 326 322 319 319 317 316 317 320 318
349 338 338 342 343 344 343 341 339 339 339 336 335 338 336 335 331 328 326 322 316 313 313 311 313 317 313
343 340 335 334 337 338 339 335 334 344 342 336 332 335 336 334 331 329 325 320 312 309 309 310 313 309 310
338 342 345 345 345 343 344 344 343 342 342 339 329 329 331 331 331 328 324 320 320 315 309 312 308 309 309
333 340 344 345 343 343 343 343 342 342 340 340 336 332 332 325 331 328 326 328 324 319 314 311 309 310 309
325 338 341 341 343 342 341 341 341 340 339 336 334 334 335 330 330 328 327 326 324 319 316 313 311 310 308
320 337 339 336 337 335 334 335 337 336 336 336 334 331 332 330 327 329 326 322 322 321 318 314 313 312 310
328 331 328 328 325 325 325 328 331 331 329 329 328 324 323 323 322 322 319 319 317 314 316 314 313 313 312
316 316 317 318 317 316 318 320 321 325 327 324 323 323 321 320 318 318 315 314 316 314 315 315 313 313 312
307 308 308 310 312 312 313 314 317 318 319 317 315 314 314 314 313 312 310 310 309 310 312 313 310 310 313
304 304 305 306 306 308 310 311 313 315 316 315 314 314 312 312 312 311 311 310 311 311 308 309 310 308 307
305 304 303 302 303 304 304 305 306 308 310 311 311 312 311 311 309 311 311 311 308 307 306 307 310 311 308
307 306 304 301 300 299 298 300 300 301 303 304 304 305 306 304 304 305 307 308 306 305 308 307 310 309 306
307 305 302 299 297 296 295 295 296 296 296 297 298 298 300 299 298 299 301 303 303 303 299 303 303 305 304
303 300 298 297 296 294 293 292 293 294 294 294 294 294 294 294 293 293 294 295 295 299 299 298 296 295 296
302 301 299 295 291 291 291 292 292 293 292 292 293 293 293 292 292 292 292 292 292 290 294 293 297 295 292

GFSFLT2_sfc_thetae_048.txt.gz
Theta_e
340 344 345 345 346 346 346 345 344 343 343 342 340 338 337 334 332 329 325 320 318 317 315 316 319 320 309
344 337 339 341 342 343 342 340 338 338 338 336 334 337 337 334 332 329 326 319 314 313 312 315 316 315 305
339 339 334 336 337 337 337 333 331 338 335 331 332 335 336 334 331 329 325 319 314 314 313 313 312 302 303
334 338 342 341 339 339 340 337 339 337 337 332 327 330 332 331 331 328 324 322 320 308 304 309 302 301 302
328 336 337 339 337 336 338 336 335 335 331 331 327 328 326 324 326 324 322 321 316 311 309 305 303 301 300
314 334 336 337 335 334 334 335 334 332 332 330 328 330 329 327 325 324 320 319 317 313 310 308 306 304 302
313 334 332 330 329 328 328 330 331 329 329 329 329 327 325 326 323 321 319 318 313 314 313 310 308 307 305
321 324 322 320 320 321 320 321 326 327 325 324 323 322 320 321 319 317 315 315 313 312 312 310 309 308 308
314 315 315 315 316 315 315 317 318 318 316 316 315 314 315 316 315 314 313 312 312 312 313 311 308 308 308
309 310 310 311 311 312 313 312 313 314 313 312 311 311 312 313 313 311 310 310 310 308 306 306 305 306 306
305 305 305 306 306 306 307 306 307 311 312 310 308 308 308 307 308 307 305 304 302 301 301 302 304 304 302
303 302 302 301 300 301 299 300 302 304 304 303 303 302 303 301 300 300 304 303 299 298 301 302 303 303 301
304 302 299 296 294 294 294 295 295 296 298 298 298 298 297 295 295 296 298 298 297 297 296 297 301 299 298
303 300 295 293 292 291 291 291 292 292 292 293 291 291 291 290 290 290 290 294 293 292 292 294 293 297 295
296 295 293 292 290 289 288 288 290 290 290 290 290 290 289 289 288 287 287 287 286 288 288 291 288 287 289
296 293 291 289 286 286 287 287 288 288 288 288 288 288 287 287 286 286 287 286 285 284 286 288 285 284 285